Vertical_Velocity
3 0 -7 7 11 7 3 2 -1 2 0 3 3 -1 2 -1 -1 0 -0 -1 -2 -1 -2 -2 -2 -1 1 1 0 0 -2 -1 2 2 3 3 7 0 -0 1 3 0 1
13 0 2 7 7 6 5 -0 4 2 1 1 -1 0 1 -2 -1 -1 -0 1 1 -0 -2 -2 -0 -2 -2 -0 1 0 -0 1 -0 1 2 2 2 7 3 2 -0 5 1
0 -0 10 2 -0 3 2 3 5 3 -0 0 3 -1 0 -1 -0 -0 0 0 -1 -1 -1 -0 -2 -2 -1 -3 -1 0 -1 -1 1 1 0 1 0 1 5 3 1 1 -1
-1 2 -1 0 5 0 7 7 0 -1 1 -1 1 -1 -1 -1 -2 -2 -1 1 1 -0 -2 -3 -0 -2 0 0 0 -1 -1 0 -0 -0 1 1 0 1 2 -0 4 7 1
1 1 -2 1 1 2 3 -1 0 0 -1 -1 -1 -1 -0 -1 1 0 -0 -1 -1 -0 1 -1 0 -1 -0 -2 -1 1 -1 -2 -1 -0 -1 -1 1 1 2 0 1 5 1
2 -1 0 -1 1 -1 -1 2 0 -2 0 -0 -0 0 0 -0 -2 -1 -0 0 -0 -1 -1 -1 -1 -1 -1 0 -0 -1 0 -0 -0 -0 -2 -1 -0 0 2 -0 0 1 -1
2 2 1 -2 2 1 1 3 -1 -3 0 -1 -1 0 0 -0 -0 0 1 0 1 1 0 1 0 -1 -1 -2 -2 -1 0 0 -1 -2 0 -1 -1 0 1 1 -0 -1 0
-1 -0 -4 2 2 4 2 -7 0 -1 -1 -2 -1 0 -2 -1 -1 -2 -1 -1 -0 -2 -0 -0 0 -0 0 0 0 -1 -0 -2 -1 -1 -1 -3 -2 -1 -0 5 1 -0 0
-1 -1 1 1 -2 -4 -2 4 -2 1 -1 -2 -1 -1 -1 -2 -1 -2 -3 -1 -1 -1 1 1 -1 -2 -3 -1 -1 -0 -1 2 1 -2 -1 -0 -2 -2 -1 1 5 1 1
-1 0 -1 -0 -1 -0 3 -2 1 -2 0 -2 -2 -1 -0 -1 -1 -1 -2 -2 -2 -1 -2 -1 -1 -0 1 -1 -1 -1 -1 -1 1 2 1 -2 -1 -1 -1 2 0 1 0
-3 -4 -3 -1 0 -1 1 -1 -0 -4 -2 -2 -2 -2 1 -1 -1 0 -1 -1 -2 -1 -1 -2 -1 -1 -2 -2 -1 -1 -2 -2 -1 0 1 0 2 -1 -0 -1 1 0 -0
-0 -0 0 -2 -2 -3 0 -4 -3 -1 1 1 -0 -1 -0 -2 -2 -0 -0 -1 -1 0 -2 -0 -2 -2 -1 -0 -1 -2 -0 1 -2 -2 -1 1 1 2 -0 -0 0 1 -1
-2 -3 -2 -1 -1 -2 -2 -1 0 -1 0 -2 -1 1 1 1 -0 -1 -1 -1 -2 -2 -1 -1 -2 -2 -1 -1 -3 -2 -1 -2 -1 -0 -2 -3 0 2 2 2 -0 1 -1
-1 -1 -2 -4 -4 -2 -0 -0 -1 -0 0 -1 -0 0 -0 -1 -1 0 0 -2 -2 -2 -2 -3 -1 -0 -1 -2 -2 2 -2 -3 -1 -3 1 -1 -3 -3 1 3 2 1 3
-2 -2 -2 0 2 2 -0 -1 -0 -1 -2 -2 -2 -1 -1 -1 -2 -3 -4 -3 -3 -2 -2 1 -1 -1 -1 -0 -1 -1 2 1 -2 -1 -0 -1 -1 -1 -3 -3 0 3 2
-1 0 0 -0 -2 -3 -2 -2 -2 -2 -1 -1 -0 -0 -1 -2 -2 -1 -2 -2 -2 -3 -2 -2 -1 -1 -1 -1 1 -0 -2 1 3 1 -1 2 1 -2 1 -0 -1 -1 2
0 -0 -1 -1 -1 0 -0 -1 -0 0 0 -1 -2 -3 -3 -3 -3 -2 -2 -1 -2 -2 -2 -3 -3 -5 -5 -3 -2 -1 -1 -2 -1 1 1 0 2 4 -2 -1 2 0 -0
-1 -1 -0 -1 -2 -2 -1 -1 -0 -1 -2 -1 -1 -1 -1 -1 -0 -1 -2 -2 -3 -4 -4 -4 -4 -2 -2 -5 -1 -0 -2 -0 1 -1 -1 0 0 0 4 1 -1 0 -0
0 -1 -1 0 1 1 2 1 0 1 1 -2 -1 -2 -3 -4 -5 -4 -5 -5 -4 -4 -4 -4 -4 -7 -7 -4 -1 -1 -0 -1 0 -2 1 0 -2 0 -0 4 -0 -2 1
-1 -1 1 0 -0 -1 -2 -1 -1 -2 -2 0 0 -0 -2 -2 -2 -3 -3 -6 -4 -4 -4 -4 -4 -4 -9 -12 -7 -3 0 1 -0 -1 -0 1 -1 -2 -3 -0 3 -0 -2
0 0 -1 -1 -0 -2 -2 -3 -4 -5 -4 -5 -5 -5 -6 -8 -9 -5 -6 -7 -7 -5 -5 -5 -8 -6 1 -7 -13 -3 0 1 -1 1 3 2 -5 2 -1 1 -1 2 2
-0 0 1 2 -0 0 1 1 0 4 5 3 2 -2 -1 2 3 -2 -4 -2 -2 -0 -2 -2 -4 -3 -5 -3 -14 -7 -16 15 -3 4 1 2 1 2 1 -5 0 2 -1
1 1 0 -1 0 1 1 -0 1 -2 -4 1 1 1 2 3 0 1 2 1 1 0 -1 -1 -2 -3 -4 2 -1 -12 -13 -11 -14 13 9 -2 5 4 -0 5 -2 -0 3
1 2 -0 1 1 -1 -2 0 -1 -4 -2 -5 -5 -2 -2 -6 -3 -4 -4 -5 -5 -5 -3 -2 -2 -2 -3 -2 -3 5 -6 -9 -17 -21 9 13 3 2 1 6 6 -3 6
0 -2 -0 -0 0 -1 -2 -4 -6 -2 -2 -1 -4 -2 -3 -1 -4 -4 -3 -0 -2 -5 -5 -2 -2 0 -1 -5 -0 -4 -3 -1 -1 -19 -22 4 1 9 7 1 2 0 3
-1 1 0 -1 -2 -3 -4 -1 -1 -1 -1 -3 -5 -3 -3 1 2 -4 -3 -5 -4 -4 -3 -9 -7 -3 0 -2 -2 -4 1 -5 3 -16 -18 -1 -15 13 2 4 3 2 2
Height
3182 3182 3182 3182 3182 3184 3184 3185 3185 3185 3185 3185 3185 3185 3185 3185 3185 3184 3183 3182 3182 3181 3180 3179 3178 3176 3175 3174 3174 3174 3173 3174 3174 3175 3176 3175 3176 3176 3177 3177 3177 3177 3178
3181 3184 3183 3183 3184 3184 3184 3185 3185 3185 3185 3185 3186 3186 3185 3185 3185 3184 3184 3183 3182 3181 3180 3179 3178 3177 3176 3176 3175 3174 3174 3174 3175 3175 3175 3176 3177 3177 3177 3177 3178 3178 3178
3181 3183 3183 3183 3185 3185 3185 3185 3185 3185 3185 3185 3186 3186 3185 3185 3185 3184 3184 3183 3182 3181 3180 3179 3178 3178 3177 3176 3175 3175 3174 3174 3174 3175 3175 3176 3176 3177 3177 3177 3178 3178 3178
3181 3183 3184 3184 3184 3185 3186 3186 3185 3185 3186 3186 3186 3185 3185 3185 3184 3184 3183 3182 3182 3181 3180 3179 3178 3178 3177 3176 3176 3175 3174 3174 3173 3174 3174 3175 3176 3176 3177 3177 3177 3177 3178
3181 3182 3184 3183 3184 3185 3185 3185 3185 3185 3185 3185 3185 3184 3184 3183 3182 3183 3182 3181 3180 3180 3179 3179 3178 3177 3177 3176 3176 3175 3174 3174 3173 3173 3173 3174 3175 3175 3176 3176 3177 3177 3177
3180 3182 3183 3183 3184 3184 3184 3184 3184 3184 3184 3184 3184 3183 3183 3182 3181 3181 3180 3180 3179 3178 3177 3176 3176 3176 3176 3176 3175 3175 3174 3173 3173 3172 3172 3172 3173 3173 3174 3175 3175 3175 3175
3181 3181 3182 3182 3183 3183 3183 3183 3184 3184 3183 3183 3182 3182 3181 3181 3180 3179 3178 3177 3177 3176 3175 3175 3174 3173 3173 3173 3173 3173 3173 3172 3171 3171 3171 3171 3171 3171 3172 3173 3174 3173 3173
3179 3181 3182 3182 3182 3182 3182 3182 3182 3182 3181 3181 3181 3180 3180 3179 3179 3178 3177 3176 3175 3174 3174 3173 3172 3171 3170 3170 3170 3170 3170 3170 3170 3170 3169 3169 3169 3170 3170 3170 3171 3171 3171
3179 3180 3181 3181 3181 3181 3180 3180 3179 3179 3179 3179 3179 3178 3178 3177 3176 3176 3175 3174 3173 3172 3171 3170 3170 3170 3169 3168 3167 3167 3167 3167 3167 3167 3167 3167 3167 3167 3169 3168 3168 3168 3168
3178 3178 3179 3179 3179 3179 3179 3179 3179 3179 3178 3178 3177 3177 3176 3176 3175 3174 3173 3172 3172 3171 3170 3168 3167 3166 3165 3165 3165 3164 3164 3163 3163 3163 3163 3163 3164 3165 3166 3166 3165 3165 3165
3177 3177 3177 3177 3178 3178 3178 3177 3177 3177 3176 3175 3175 3174 3173 3173 3172 3171 3170 3169 3168 3167 3166 3165 3165 3164 3163 3161 3161 3160 3160 3160 3160 3159 3158 3159 3159 3160 3161 3162 3162 3162 3162
3174 3174 3175 3175 3175 3176 3175 3175 3174 3174 3172 3172 3171 3170 3169 3168 3167 3166 3166 3165 3164 3163 3162 3161 3160 3159 3159 3158 3157 3156 3155 3155 3155 3156 3155 3153 3153 3154 3155 3156 3157 3157 3159
3171 3171 3171 3172 3172 3172 3171 3170 3170 3169 3168 3167 3166 3165 3163 3162 3161 3161 3160 3159 3159 3158 3157 3156 3155 3154 3153 3152 3152 3152 3150 3149 3149 3148 3150 3150 3149 3148 3149 3150 3151 3152 3153
3168 3168 3169 3169 3168 3167 3167 3166 3165 3164 3162 3161 3160 3159 3158 3156 3155 3154 3153 3152 3151 3151 3150 3149 3148 3147 3146 3145 3144 3144 3144 3144 3142 3142 3142 3142 3144 3145 3143 3143 3143 3144 3147
3164 3165 3164 3164 3163 3163 3162 3161 3160 3159 3157 3156 3155 3154 3152 3151 3150 3148 3147 3145 3144 3143 3142 3140 3140 3139 3138 3137 3136 3135 3134 3135 3135 3135 3135 3135 3135 3137 3138 3138 3137 3137 3138
3160 3160 3160 3159 3159 3158 3157 3156 3155 3153 3152 3150 3149 3147 3146 3145 3144 3142 3140 3138 3136 3135 3133 3132 3131 3130 3129 3128 3128 3127 3127 3125 3125 3126 3126 3127 3127 3128 3128 3131 3131 3131 3131
3155 3155 3154 3154 3153 3153 3151 3150 3149 3147 3146 3145 3143 3142 3140 3138 3136 3134 3132 3130 3129 3127 3125 3124 3122 3120 3119 3118 3118 3118 3117 3117 3117 3116 3116 3117 3118 3117 3119 3120 3121 3122 3123
3150 3150 3150 3150 3149 3148 3147 3145 3143 3142 3140 3139 3137 3135 3133 3132 3129 3127 3125 3123 3121 3119 3117 3115 3113 3111 3109 3107 3107 3107 3105 3105 3107 3107 3106 3106 3106 3107 3108 3108 3111 3112 3113
3145 3146 3145 3144 3143 3142 3140 3139 3138 3137 3135 3133 3132 3130 3128 3126 3123 3121 3119 3116 3114 3112 3109 3105 3103 3099 3099 3096 3094 3095 3094 3094 3093 3094 3094 3095 3094 3094 3095 3096 3096 3099 3101
3140 3140 3140 3140 3139 3137 3136 3134 3132 3131 3129 3127 3124 3121 3119 3116 3114 3111 3108 3105 3102 3100 3097 3094 3090 3088 3084 3081 3080 3079 3080 3081 3081 3080 3080 3080 3081 3081 3081 3082 3085 3085 3088
3135 3135 3135 3134 3133 3132 3130 3128 3126 3123 3121 3119 3117 3114 3111 3108 3104 3101 3098 3095 3092 3088 3085 3080 3076 3072 3070 3065 3062 3062 3062 3063 3065 3065 3065 3065 3065 3066 3067 3069 3070 3073 3075
3129 3130 3130 3129 3128 3126 3124 3121 3119 3118 3116 3114 3110 3106 3102 3098 3093 3088 3084 3081 3077 3073 3070 3065 3061 3057 3054 3051 3046 3043 3041 3048 3046 3047 3048 3048 3049 3052 3052 3052 3056 3058 3060
3124 3123 3122 3121 3120 3118 3116 3114 3112 3110 3108 3105 3102 3099 3093 3087 3081 3076 3070 3066 3062 3057 3054 3050 3046 3042 3038 3037 3033 3029 3024 3022 3023 3028 3029 3031 3032 3034 3035 3037 3039 3042 3045
3117 3116 3115 3115 3114 3111 3110 3107 3104 3101 3099 3096 3090 3087 3084 3079 3072 3065 3060 3055 3049 3045 3041 3036 3032 3027 3023 3020 3019 3018 3013 3008 3003 3003 3008 3011 3014 3015 3017 3020 3023 3025 3029
3110 3109 3109 3108 3107 3106 3103 3101 3097 3093 3087 3083 3079 3076 3072 3068 3062 3056 3050 3044 3038 3033 3029 3023 3019 3015 3010 3005 3000 2999 2998 2996 2991 2986 2982 2985 2989 2997 2999 3000 3004 3008 3012
3103 3104 3103 3102 3101 3099 3096 3091 3087 3082 3077 3073 3069 3064 3059 3054 3049 3044 3037 3032 3026 3020 3015 3010 3006 3002 2998 2993 2989 2985 2981 2978 2977 2973 2968 2967 2965 2967 2977 2983 2985 2989 2994